RYR98XK EBCI-LIRP

Flight info

Callsign RYR98XK
Flight time 1h 28m
Altitude 37000
Route RITAX UT27 ROUSY DCT GTQ DCT DEVDI DCT ODINA DCT SRN DCT OSBUL DCT EKPAL DCT MIVKI
Aircraft B738/M-SDE2E3FGHIRWXY/LB1

Departure

Time 2026-05-06 06:55
Airport Brussels South Charleroi Airport (EBCI)

Arrival

Time 2026-05-06 08:23
Airport Pisa International Airport (LIRP)
Time Latitude Longitude Altitude Speed Heading
2026-05-06 06:46 50.46800 4.46879 584 ft 1 kts 335°
2026-05-06 06:46 50.46799 4.46880 584 ft 1 kts 335°
2026-05-06 06:46 50.46784 4.46889 584 ft 3 kts 346°
2026-05-06 06:46 50.46765 4.46893 584 ft 3 kts 13°
2026-05-06 06:47 50.46749 4.46882 585 ft 3 kts 51°
2026-05-06 06:47 50.46743 4.46869 585 ft 0 kts 65°
2026-05-06 06:50 50.46745 4.46876 585 ft 3 kts 65°
2026-05-06 06:50 50.46754 4.46925 585 ft 5 kts 80°
2026-05-06 06:51 50.46761 4.46983 585 ft 6 kts 76°
2026-05-06 06:51 50.46776 4.47044 586 ft 6 kts 66°
2026-05-06 06:51 50.46794 4.47105 586 ft 6 kts 65°
2026-05-06 06:51 50.46811 4.47167 586 ft 6 kts 66°
2026-05-06 06:52 50.46831 4.47235 586 ft 8 kts 65°
2026-05-06 06:52 50.46837 4.47313 586 ft 7 kts 120°
2026-05-06 06:52 50.46797 4.47355 587 ft 7 kts 154°
2026-05-06 06:52 50.46754 4.47386 589 ft 7 kts 155°
2026-05-06 06:53 50.46711 4.47417 591 ft 7 kts 155°
2026-05-06 06:53 50.46669 4.47448 594 ft 7 kts 154°
2026-05-06 06:53 50.46627 4.47460 595 ft 7 kts 205°
2026-05-06 06:53 50.46608 4.47425 596 ft 6 kts 242°
2026-05-06 06:54 50.46604 4.47414 596 ft 1 kts 244°
2026-05-06 06:54 50.46525 4.47142 597 ft 62 kts 245°
2026-05-06 06:54 50.46250 4.46196 589 ft 126 kts 245°
2026-05-06 06:54 50.45847 4.44697 746 ft 161 kts 249°
2026-05-06 06:55 50.45402 4.43074 1416 ft 163 kts 248°
2026-05-06 06:55 50.44923 4.41438 2032 ft 171 kts 247°
2026-05-06 06:55 50.44397 4.39684 2496 ft 184 kts 246°
2026-05-06 06:55 50.43825 4.37757 2785 ft 205 kts 246°
2026-05-06 06:56 50.43218 4.35665 3198 ft 214 kts 248°
2026-05-06 06:56 50.42585 4.33483 3530 ft 225 kts 248°
2026-05-06 06:56 50.41916 4.31190 3943 ft 238 kts 247°
2026-05-06 06:56 50.41192 4.28700 4113 ft 263 kts 249°
2026-05-06 06:57 50.40855 4.25883 4607 ft 266 kts 277°
2026-05-06 06:57 50.41389 4.23132 5255 ft 265 kts 301°
2026-05-06 06:57 50.42582 4.20952 5875 ft 267 kts 326°
2026-05-06 06:57 50.44222 4.19588 6527 ft 269 kts 336°
2026-05-06 06:58 50.45946 4.18381 7156 ft 274 kts 338°
2026-05-06 06:58 50.47765 4.17638 7763 ft 277 kts
2026-05-06 06:58 50.49648 4.18265 8436 ft 280 kts 24°
2026-05-06 06:58 50.51390 4.19685 9086 ft 285 kts 30°
2026-05-06 06:59 50.53123 4.21233 9757 ft 289 kts 30°
2026-05-06 06:59 50.54883 4.22854 10237 ft 302 kts 36°
2026-05-06 06:59 50.56293 4.25411 10375 ft 323 kts 66°
2026-05-06 06:59 50.56734 4.28926 10645 ft 337 kts 95°
2026-05-06 07:00 50.56126 4.32509 11201 ft 343 kts 113°
2026-05-06 07:00 50.55121 4.35935 11861 ft 347 kts 117°
2026-05-06 07:00 50.54007 4.39343 12450 ft 354 kts 118°
2026-05-06 07:00 50.52851 4.42799 13079 ft 359 kts 119°
2026-05-06 07:01 50.51690 4.46287 13810 ft 361 kts 118°
2026-05-06 07:01 50.50533 4.49808 14534 ft 364 kts 118°
2026-05-06 07:01 50.49377 4.53365 15235 ft 367 kts 118°
2026-05-06 07:01 50.48217 4.56963 15899 ft 371 kts 118°
2026-05-06 07:02 50.47051 4.60595 16576 ft 374 kts 118°
2026-05-06 07:02 50.45876 4.64258 17207 ft 377 kts 118°
2026-05-06 07:02 50.44691 4.67958 17816 ft 380 kts 118°
2026-05-06 07:02 50.43501 4.71673 18404 ft 383 kts 118°
2026-05-06 07:03 50.42297 4.75426 18992 ft 387 kts 118°
2026-05-06 07:03 50.41101 4.79148 19591 ft 388 kts 118°
2026-05-06 07:03 50.39881 4.82940 20165 ft 391 kts 118°
2026-05-06 07:03 50.38652 4.86758 20704 ft 394 kts 118°
2026-05-06 07:04 50.37412 4.90604 21228 ft 397 kts 118°
2026-05-06 07:04 50.36162 4.94475 21733 ft 400 kts 118°
2026-05-06 07:04 50.34902 4.98369 22222 ft 403 kts 118°
2026-05-06 07:04 50.33631 5.02291 22703 ft 406 kts 118°
2026-05-06 07:05 50.32349 5.06238 23161 ft 408 kts 118°
2026-05-06 07:05 50.31057 5.10213 23628 ft 411 kts 118°
2026-05-06 07:05 50.29757 5.14205 24081 ft 414 kts 119°
2026-05-06 07:05 50.28446 5.18224 24497 ft 417 kts 119°
2026-05-06 07:06 50.27122 5.22277 24895 ft 419 kts 119°
2026-05-06 07:06 50.25790 5.26346 25304 ft 422 kts 119°
2026-05-06 07:06 50.24448 5.30441 25715 ft 424 kts 119°
2026-05-06 07:06 50.23099 5.34549 26102 ft 426 kts 119°
2026-05-06 07:07 50.21739 5.38682 26477 ft 429 kts 119°
2026-05-06 07:07 50.20370 5.42840 26844 ft 432 kts 119°
2026-05-06 07:07 50.18993 5.47016 27227 ft 434 kts 119°
2026-05-06 07:07 50.17608 5.51208 27607 ft 436 kts 119°
2026-05-06 07:08 50.16081 5.55294 27952 ft 436 kts 129°
2026-05-06 07:08 50.14035 5.58748 28286 ft 434 kts 142°
2026-05-06 07:08 50.11574 5.61450 28653 ft 432 kts 153°
2026-05-06 07:08 50.08900 5.63563 29000 ft 432 kts 155°
2026-05-06 07:09 50.06193 5.65646 29314 ft 434 kts 155°
2026-05-06 07:09 50.03482 5.67745 29611 ft 437 kts 155°
2026-05-06 07:09 50.00760 5.69869 29900 ft 439 kts 155°
2026-05-06 07:09 49.98030 5.72014 30183 ft 441 kts 155°
2026-05-06 07:10 49.95298 5.74169 30569 ft 439 kts 155°
2026-05-06 07:10 49.92619 5.76287 31003 ft 437 kts 155°
2026-05-06 07:10 49.89912 5.78426 31348 ft 437 kts 155°
2026-05-06 07:10 49.87197 5.80570 31621 ft 439 kts 155°
2026-05-06 07:11 49.84472 5.82717 31931 ft 439 kts 155°
2026-05-06 07:11 49.81760 5.84851 32308 ft 437 kts 155°
2026-05-06 07:11 49.79050 5.86981 32650 ft 436 kts 155°
2026-05-06 07:11 49.76342 5.89106 32944 ft 437 kts 155°
2026-05-06 07:12 49.73629 5.91232 33232 ft 437 kts 155°
2026-05-06 07:12 49.70917 5.93353 33535 ft 437 kts 155°
2026-05-06 07:12 49.68210 5.95470 33802 ft 437 kts 155°
2026-05-06 07:12 49.65502 5.97584 34111 ft 436 kts 155°
2026-05-06 07:13 49.62802 5.99691 34432 ft 434 kts 155°
2026-05-06 07:13 49.60101 6.01795 34677 ft 435 kts 155°
2026-05-06 07:13 49.57391 6.03902 34887 ft 436 kts 155°
2026-05-06 07:13 49.54682 6.06008 35139 ft 436 kts 155°
2026-05-06 07:14 49.51975 6.08110 35435 ft 435 kts 155°
2026-05-06 07:14 49.49281 6.10198 35700 ft 434 kts 155°
2026-05-06 07:14 49.46661 6.12531 35891 ft 438 kts 146°
2026-05-06 07:14 49.44254 6.15421 36085 ft 439 kts 143°
2026-05-06 07:15 49.41893 6.18395 36318 ft 439 kts 143°
2026-05-06 07:15 49.39532 6.21384 36516 ft 440 kts 143°
2026-05-06 07:15 49.37167 6.24364 36705 ft 440 kts 143°
2026-05-06 07:16 49.32401 6.30299 36781 ft 439 kts 144°
2026-05-06 07:16 49.27706 6.36089 36777 ft 428 kts 144°
2026-05-06 07:17 49.23067 6.41782 36793 ft 428 kts 144°
2026-05-06 07:17 49.18410 6.47481 36799 ft 429 kts 144°
2026-05-06 07:18 49.13742 6.53186 36803 ft 430 kts 144°
2026-05-06 07:18 49.09054 6.58900 36796 ft 432 kts 144°
2026-05-06 07:19 49.04352 6.64622 36800 ft 433 kts 144°
2026-05-06 07:19 48.99632 6.70324 36792 ft 432 kts 147°
2026-05-06 07:20 48.94444 6.74622 36804 ft 426 kts 159°
2026-05-06 07:20 48.89017 6.78238 36805 ft 426 kts 159°
2026-05-06 07:21 48.83594 6.81865 36806 ft 426 kts 159°
2026-05-06 07:21 48.78185 6.85521 36803 ft 425 kts 159°
2026-05-06 07:22 48.72786 6.89182 36800 ft 425 kts 159°
2026-05-06 07:22 48.67402 6.92828 36802 ft 424 kts 159°
2026-05-06 07:23 48.62017 6.96465 36801 ft 423 kts 159°
2026-05-06 07:23 48.56644 7.00085 36809 ft 422 kts 159°
2026-05-06 07:24 48.51282 7.03690 36806 ft 422 kts 159°
2026-05-06 07:24 48.45925 7.07284 36801 ft 421 kts 159°
2026-05-06 07:25 48.40580 7.10860 36807 ft 420 kts 160°
2026-05-06 07:25 48.35235 7.14427 36806 ft 420 kts 160°
2026-05-06 07:26 48.29899 7.17983 36802 ft 419 kts 160°
2026-05-06 07:26 48.24564 7.21527 36809 ft 419 kts 160°
2026-05-06 07:27 48.19235 7.25061 36810 ft 419 kts 160°
2026-05-06 07:27 48.13934 7.28566 36814 ft 420 kts 160°
2026-05-06 07:28 48.08587 7.32095 36802 ft 420 kts 160°
2026-05-06 07:28 48.00555 7.37382 36808 ft 420 kts 160°
2026-05-06 07:29 47.95200 7.40896 36806 ft 421 kts 160°
2026-05-06 07:29 47.89842 7.44405 36806 ft 420 kts 160°
2026-05-06 07:30 47.84484 7.47905 36815 ft 420 kts 160°
2026-05-06 07:30 47.79134 7.51394 36812 ft 419 kts 160°
2026-05-06 07:31 47.73795 7.54867 36834 ft 419 kts 160°
2026-05-06 07:31 47.68507 7.58514 36826 ft 419 kts 159°
2026-05-06 07:32 47.63255 7.62255 36840 ft 418 kts 159°
2026-05-06 07:32 47.58034 7.65957 36833 ft 418 kts 159°
2026-05-06 07:33 47.52782 7.69651 36831 ft 418 kts 159°
2026-05-06 07:33 47.47530 7.73326 36835 ft 417 kts 159°
2026-05-06 07:34 47.42280 7.76993 36831 ft 417 kts 159°
2026-05-06 07:34 47.37039 7.80643 36831 ft 417 kts 159°
2026-05-06 07:35 47.31795 7.84288 36835 ft 417 kts 159°
2026-05-06 07:35 47.26548 7.87927 36831 ft 417 kts 159°
2026-05-06 07:36 47.21298 7.91559 36834 ft 417 kts 160°
2026-05-06 07:36 47.16047 7.95184 36834 ft 417 kts 160°
2026-05-06 07:37 47.10796 7.98803 36839 ft 416 kts 160°
2026-05-06 07:37 47.05548 8.02412 36836 ft 416 kts 160°
2026-05-06 07:38 47.00307 8.06007 36835 ft 416 kts 160°
2026-05-06 07:38 46.95052 8.09604 36831 ft 416 kts 160°
2026-05-06 07:39 46.89803 8.13189 36833 ft 416 kts 160°
2026-05-06 07:39 46.84553 8.16767 36831 ft 416 kts 161°
2026-05-06 07:40 46.79309 8.20335 36831 ft 416 kts 161°
2026-05-06 07:40 46.74071 8.23888 36834 ft 415 kts 161°
2026-05-06 07:41 46.68832 8.27436 36832 ft 415 kts 161°
2026-05-06 07:41 46.63584 8.30982 36822 ft 416 kts 161°
2026-05-06 07:42 46.58322 8.34529 36836 ft 417 kts 161°
2026-05-06 07:42 46.53099 8.38044 36839 ft 417 kts 161°
2026-05-06 07:43 46.47845 8.41571 36836 ft 415 kts 161°
2026-05-06 07:43 46.42621 8.45073 36842 ft 412 kts 161°
2026-05-06 07:44 46.37414 8.48554 36837 ft 412 kts 161°
2026-05-06 07:44 46.33063 8.51457 36830 ft 410 kts 161°
2026-05-06 07:45 46.27886 8.54905 36852 ft 409 kts 161°
2026-05-06 07:45 46.22715 8.58341 36856 ft 409 kts 161°
2026-05-06 07:46 46.17569 8.61754 36845 ft 410 kts 161°
2026-05-06 07:46 46.12372 8.65194 36853 ft 412 kts 161°
2026-05-06 07:47 46.07214 8.68860 36856 ft 415 kts 158°
2026-05-06 07:47 46.02145 8.72889 36860 ft 417 kts 157°
2026-05-06 07:48 45.97069 8.76934 36866 ft 417 kts 158°
2026-05-06 07:48 45.91967 8.80943 36864 ft 418 kts 158°
2026-05-06 07:49 45.86850 8.84936 36870 ft 419 kts 158°
2026-05-06 07:49 45.81724 8.88926 36864 ft 419 kts 158°
2026-05-06 07:50 45.76598 8.92909 36862 ft 419 kts 158°
2026-05-06 07:50 45.71478 8.96879 36857 ft 419 kts 159°
2026-05-06 07:51 45.66368 9.00867 36856 ft 420 kts 155°
2026-05-06 07:51 45.61824 9.06325 36865 ft 434 kts 140°
2026-05-06 07:52 45.57793 9.12746 36857 ft 435 kts 139°
2026-05-06 07:52 45.53762 9.19191 36861 ft 434 kts 139°
2026-05-06 07:53 45.49715 9.25579 36862 ft 434 kts 140°
2026-05-06 07:53 45.45654 9.31935 36861 ft 434 kts 140°
2026-05-06 07:54 45.41582 9.38286 36786 ft 435 kts 140°
2026-05-06 07:54 45.39534 9.41470 36463 ft 434 kts 140°
2026-05-06 07:54 45.37544 9.44571 36126 ft 428 kts 140°
2026-05-06 07:55 45.35541 9.47689 35767 ft 425 kts 141°
2026-05-06 07:55 45.33555 9.50774 35387 ft 421 kts 141°
2026-05-06 07:55 45.31583 9.53833 35015 ft 419 kts 141°
2026-05-06 07:55 45.29621 9.56868 34632 ft 415 kts 142°
2026-05-06 07:56 45.27513 9.59561 34201 ft 400 kts 154°
2026-05-06 07:56 45.25140 9.61522 33562 ft 391 kts 165°
2026-05-06 07:56 45.22608 9.62876 32774 ft 389 kts 172°
2026-05-06 07:56 45.19988 9.63999 31955 ft 397 kts 171°
2026-05-06 07:57 45.17325 9.65156 31196 ft 402 kts 171°
2026-05-06 07:57 45.14640 9.66340 30462 ft 406 kts 171°
2026-05-06 07:57 45.11938 9.67543 29811 ft 407 kts 170°
2026-05-06 07:57 45.09239 9.68754 29292 ft 405 kts 170°
2026-05-06 07:58 45.06566 9.69957 28832 ft 400 kts 169°
2026-05-06 07:58 45.03914 9.71149 28408 ft 401 kts 169°
2026-05-06 07:58 45.01253 9.72339 27991 ft 402 kts 169°
2026-05-06 07:58 44.98578 9.73533 27568 ft 403 kts 169°
2026-05-06 07:59 44.95897 9.74728 27151 ft 405 kts 168°
2026-05-06 07:59 44.93210 9.75926 26726 ft 406 kts 168°
2026-05-06 07:59 44.90522 9.77125 26296 ft 402 kts 168°
2026-05-06 07:59 44.87877 9.78307 25873 ft 396 kts 168°
2026-05-06 08:00 44.85276 9.79324 25610 ft 382 kts 172°
2026-05-06 08:00 44.82674 9.80122 25087 ft 380 kts 174°
2026-05-06 08:00 44.80101 9.80840 24691 ft 375 kts 174°
2026-05-06 08:00 44.77587 9.81526 24249 ft 372 kts 174°
2026-05-06 08:01 44.75059 9.82220 23749 ft 369 kts 173°
2026-05-06 08:01 44.72538 9.82923 23216 ft 368 kts 173°
2026-05-06 08:01 44.70032 9.83630 22745 ft 366 kts 173°
2026-05-06 08:01 44.67542 9.84341 22280 ft 364 kts 173°
2026-05-06 08:02 44.65074 9.85049 21855 ft 361 kts 173°
2026-05-06 08:02 44.62625 9.85755 21413 ft 358 kts 173°
2026-05-06 08:02 44.60188 9.86457 20962 ft 356 kts 173°
2026-05-06 08:02 44.57772 9.87154 20516 ft 353 kts 173°
2026-05-06 08:03 44.55373 9.87846 20080 ft 351 kts 173°
2026-05-06 08:03 44.52990 9.88533 19648 ft 348 kts 173°
2026-05-06 08:03 44.50622 9.89214 19229 ft 346 kts 173°
2026-05-06 08:03 44.48276 9.89888 18824 ft 343 kts 173°
2026-05-06 08:04 44.45948 9.90556 18400 ft 341 kts 173°
2026-05-06 08:04 44.43631 9.91222 17990 ft 339 kts 173°
2026-05-06 08:04 44.41329 9.91883 17574 ft 336 kts 173°
2026-05-06 08:04 44.39049 9.92536 17133 ft 334 kts 173°
2026-05-06 08:05 44.36772 9.93187 16736 ft 333 kts 173°
2026-05-06 08:05 44.34514 9.93834 16332 ft 330 kts 173°
2026-05-06 08:05 44.32268 9.94475 15917 ft 329 kts 173°
2026-05-06 08:05 44.30036 9.95113 15532 ft 326 kts 173°
2026-05-06 08:06 44.27821 9.95744 15110 ft 325 kts 173°
2026-05-06 08:06 44.25607 9.96376 14684 ft 323 kts 173°
2026-05-06 08:06 44.23408 9.97003 14275 ft 322 kts 173°
2026-05-06 08:06 44.21217 9.97627 13856 ft 320 kts 173°
2026-05-06 08:07 44.19037 9.98247 13412 ft 320 kts 173°
2026-05-06 08:07 44.16860 9.98866 13002 ft 318 kts 172°
2026-05-06 08:07 44.14696 9.99481 12604 ft 317 kts 172°
2026-05-06 08:07 44.12548 10.00092 12291 ft 313 kts 172°
2026-05-06 08:08 44.10424 10.00695 11923 ft 311 kts 172°
2026-05-06 08:08 44.08303 10.01296 11501 ft 311 kts 172°
2026-05-06 08:08 44.06219 10.01886 11118 ft 309 kts 172°
2026-05-06 08:08 44.04116 10.02481 10788 ft 306 kts 172°
2026-05-06 08:09 44.02049 10.03068 10727 ft 293 kts 172°
2026-05-06 08:09 44.00113 10.03618 10643 ft 283 kts 172°
2026-05-06 08:09 43.98197 10.04162 10550 ft 273 kts 172°
2026-05-06 08:09 43.96351 10.04683 10291 ft 270 kts 172°
2026-05-06 08:10 43.94535 10.05194 9959 ft 270 kts 172°
2026-05-06 08:10 43.92695 10.05712 9651 ft 269 kts 172°
2026-05-06 08:10 43.90859 10.06228 9334 ft 269 kts 172°
2026-05-06 08:10 43.89013 10.06747 9027 ft 268 kts 172°
2026-05-06 08:11 43.87205 10.07255 8697 ft 268 kts 172°
2026-05-06 08:11 43.85388 10.07766 8427 ft 265 kts 171°
2026-05-06 08:11 43.83585 10.08273 8148 ft 263 kts 171°
2026-05-06 08:11 43.81800 10.08775 7876 ft 261 kts 171°
2026-05-06 08:12 43.80022 10.09274 7590 ft 260 kts 171°
2026-05-06 08:12 43.78254 10.09770 7299 ft 258 kts 171°
2026-05-06 08:12 43.76492 10.10264 7017 ft 257 kts 171°
2026-05-06 08:12 43.74746 10.10753 6735 ft 255 kts 171°
2026-05-06 08:13 43.73008 10.11240 6433 ft 255 kts 171°
2026-05-06 08:13 43.71274 10.11726 6159 ft 253 kts 171°
2026-05-06 08:13 43.69556 10.12206 5899 ft 251 kts 171°
2026-05-06 08:13 43.67846 10.12675 5617 ft 250 kts 172°
2026-05-06 08:14 43.66127 10.13058 5279 ft 251 kts 173°
2026-05-06 08:14 43.64392 10.13414 4938 ft 253 kts 173°
2026-05-06 08:14 43.62648 10.13757 4625 ft 253 kts 173°
2026-05-06 08:14 43.60907 10.14091 4315 ft 253 kts 173°
2026-05-06 08:15 43.59161 10.14419 4023 ft 253 kts 173°
2026-05-06 08:15 43.57423 10.14734 3788 ft 251 kts 173°
2026-05-06 08:15 43.55713 10.15036 3544 ft 248 kts 173°
2026-05-06 08:15 43.54023 10.15485 3294 ft 246 kts 175°
2026-05-06 08:16 43.52366 10.15118 3079 ft 242 kts 206°
2026-05-06 08:16 43.50983 10.13883 3035 ft 232 kts 215°
2026-05-06 08:16 43.49593 10.12905 2990 ft 220 kts 189°
2026-05-06 08:16 43.48151 10.13119 3005 ft 204 kts 154°
2026-05-06 08:17 43.47162 10.14393 2998 ft 195 kts 117°
2026-05-06 08:17 43.47027 10.16207 2996 ft 197 kts 71°
2026-05-06 08:17 43.47853 10.17710 3028 ft 203 kts 43°
2026-05-06 08:17 43.48903 10.19042 3014 ft 207 kts 43°
2026-05-06 08:18 43.50003 10.20331 3008 ft 207 kts 40°
2026-05-06 08:18 43.51128 10.21542 2993 ft 204 kts 38°
2026-05-06 08:18 43.52237 10.22699 2987 ft 194 kts 38°
2026-05-06 08:18 43.53268 10.23768 2982 ft 177 kts 37°
2026-05-06 08:19 43.54251 10.24789 3008 ft 179 kts 38°
2026-05-06 08:19 43.55270 10.25843 2933 ft 187 kts 38°
2026-05-06 08:19 43.56325 10.26936 2699 ft 191 kts 38°
2026-05-06 08:19 43.57376 10.28026 2437 ft 186 kts 38°
2026-05-06 08:20 43.58379 10.29065 2217 ft 175 kts 39°
2026-05-06 08:20 43.59338 10.30058 1983 ft 170 kts 39°
2026-05-06 08:20 43.60284 10.31040 1788 ft 166 kts 39°
2026-05-06 08:20 43.61198 10.31987 1535 ft 162 kts 39°
2026-05-06 08:21 43.62098 10.32919 1329 ft 163 kts 40°
2026-05-06 08:21 43.63007 10.33862 1111 ft 165 kts 39°
2026-05-06 08:21 43.63926 10.34813 892 ft 165 kts 40°
2026-05-06 08:21 43.64834 10.35763 671 ft 163 kts 39°
2026-05-06 08:22 43.65723 10.36681 428 ft 160 kts 39°
2026-05-06 08:22 43.66616 10.37606 254 ft 158 kts 39°
2026-05-06 08:22 43.67487 10.38510 50 ft 160 kts 39°
2026-05-06 08:22 43.68346 10.39398 18 ft 136 kts 37°
2026-05-06 08:23 43.68950 10.40017 17 ft 62 kts 37°
2026-05-06 08:23 43.69167 10.40244 19 ft 19 kts 37°
2026-05-06 08:23 43.69235 10.40307 20 ft 8 kts 19°
2026-05-06 08:23 43.69286 10.40281 19 ft 9 kts 313°
2026-05-06 08:24 43.69327 10.40208 19 ft 10 kts 307°
2026-05-06 08:24 43.69366 10.40137 22 ft 9 kts 307°
2026-05-06 08:24 43.69422 10.40099 21 ft 10 kts 353°
2026-05-06 08:24 43.69501 10.40083 15 ft 11 kts 351°
2026-05-06 08:25 43.69568 10.40070 15 ft 9 kts 352°
2026-05-06 08:25 43.69628 10.40062 15 ft 8 kts
2026-05-06 08:25 43.69680 10.40076 14 ft 8 kts
2026-05-06 08:25 43.69730 10.40087 14 ft 5 kts
2026-05-06 08:26 43.69755 10.40092 15 ft 2 kts
2026-05-06 08:26 43.69758 10.40093 14 ft 0 kts